Terminal Aerodrome Forecast
Issued by NWS Charleston, WV

Current Version | Previous Version | Graphics & Text | Print | Product List | Glossary On
Versions: 1 2 3 4 5 6 7 8 9 10 11 12 13 14 15 16 17 18 19 20 21 22 23 24
000
FTUS41 KRLX 151724
TAFBKW
TAF
KBKW 151724Z 1518/1618 24011G20KT P6SM FEW070
     FM152300 23009G17KT P6SM BKN025
     FM160000 23009G17KT 4SM SHRA BR BKN015
     FM160300 29009G15KT 3SM SHRA BR OVC004
     FM160500 31009G15KT 5SM BR BKN010
     FM161100 33008KT 6SM BR BKN010
     FM161600 33008KT P6SM SCT025=

USA.gov is the U.S. government's official web portal to all federal, state and local government web resources and services.